Back to catalog

COSMOS 1883

GLONASS

AliveNavigationMEO
NORAD 18355·PAYLOAD·🇷🇺 Russia

Launched Sep 16, 1987 from Baikonur Cosmodrome

Loading…

Next Passes (next 24 hours)

TLE

FreshSource: Space-Track

Epoch: Sep 14, 2026, 05:08 UTC

1 18355U 87079A   26257.21428992 -.00000058  00000-0  00000-0 0  9996
2 18355  65.5406 315.7386 0006161 245.3987 201.7151  2.13101009303432

Track COSMOS 1883 in real time with AllMySat

Download on the App Store